Regional Weather Roundup
Issued by NWS Mobile, AL

Current Version | Previous Version | Text Only | Print | Product List | Glossary On
Versions: 1 2 3 4 5 6 7 8 9 10 11 12 13 14 15 16 17 18 19 20 21 22 23 24 25 26 27
000
ASUS44 KMOB 231810
RWRMOB
REGIONAL WEATHER ROUNDUP
NATIONAL WEATHER SERVICE MOBILE AL
100 PM CDT WED APR 23 2014

NOTE: "FAIR" INDICATES FEW OR NO CLOUDS BELOW 12,000 FEET WITH NO
      SIGNIFICANT WEATHER AND/OR OBSTRUCTIONS TO VISIBILITY.

  * THESE STATIONS ARE PART OF THE UNIVERSITY OF SOUTH ALABAMA
    MESONET AND ARE NOT UNDER NWS OR FAA QUALITY CONTROL.

ALZ061>064-231900-
COASTAL ALABAMA

CITY           SKY/WX    TMP DP  RH WIND       PRES   REMARKS
MOBILE REG APT PTSUNNY   80  61  52 S6        29.95F
6HR MIN TEMP:  59; 6HR MAX TEMP:  81;

BROOKLEY FIELD FAIR      80  61  52 E7        29.96F
6HR MIN TEMP:  60; 6HR MAX TEMP:  80;

USA CAMPUS*      N/A     79  59  50 CALM      29.93F
DOG RIVER*     NOT AVBL


CITY           SKY/WX    TMP DP  RH WIND       PRES   REMARKS
MOUNT VERNON*  NOT AVBL
SARALAND*      NOT AVBL
BAY MINETTE*   NOT AVBL
LOXLEY*        NOT AVBL
ROBERTSDALE*   NOT AVBL
FAIRHOPE*      NOT AVBL
ELBERTA*       NOT AVBL
FOLEY*         NOT AVBL
GRAND BAY*     NOT AVBL
DAUPHIN ISLND* NOT AVBL
BON SCOUR NWR* NOT AVBL
GULF SHORES    NOT AVBL

$$

ALZ051>060-231900-
INTERIOR SOUTHWEST AND SOUTH CENTRAL ALABAMA

CITY           SKY/WX    TMP DP  RH WIND       PRES   REMARKS
GREENVILLE     FAIR      80  59  48 N9        29.95F
6HR MIN TEMP:  59; 6HR MAX TEMP:  80; 6HR PCP:  0.01;

EVERGREEN      FAIR      82  58  43 VRB3      29.96F
6HR MIN TEMP:  60; 6HR MAX TEMP:  83;

CASTLEBERRY*   NOT AVBL
ATMORE*          N/A     79  59  50 NW5       29.95F
DIXIE*         NOT AVBL
ANDALUSIA/OPP  SUNNY     86  59  39 N6        29.94F
6HR MIN TEMP:  63; 6HR MAX TEMP:  86; 6HR PCP: TRACE;

ANDALUSIA*     NOT AVBL
FLORALA APT    PTSUNNY   79  60  52 N6        29.95F
6HR MIN TEMP:  60; 6HR MAX TEMP:  81; 6HR PCP: TRACE;

FLORALA*         N/A     79  59  50 CALM      29.91F

$$

FLZ001>006-231900-
WESTERN FLORIDA PANHANDLE

CITY           SKY/WX    TMP DP  RH WIND       PRES   REMARKS
PENSACOLA      FAIR      82  59  45 NW5       29.93F
6HR MIN TEMP:  64; 6HR MAX TEMP:  82;

NAS PENSACOLA  FAIR      76  66  71 SW8       29.94F
6HR MIN TEMP:  63; 6HR MAX TEMP:  78;

MILTON         PTSUNNY   81  60  48 N7        29.93F
6HR MIN TEMP:  62; 6HR MAX TEMP:  82;

WHTNG S FIELD  PTSUNNY   82  60  47 VRB5      29.93F
6HR MIN TEMP:  61; 6HR MAX TEMP:  83;



CITY           SKY/WX    TMP DP  RH WIND       PRES   REMARKS
WALNUT HILL*   NOT AVBL
JAY*           NOT AVBL
DUKE FIELD     PTSUNNY   81  59  47 N6        29.93F
CRESTVIEW      MOSUNNY   82  60  47 VRB5      29.94F
6HR MIN TEMP:  62; 6HR MAX TEMP:  84;

VALPARAISO     MOSUNNY   77  67  72 S10       29.93F
6HR MIN TEMP:  62; 6HR MAX TEMP:  80;

DESTIN         FAIR      77  65  66 S7        29.94F
6HR MIN TEMP:  65; 6HR MAX TEMP:  80;


$$

MSZ076-079-231900-
INTERIOR SOUTHEAST MISSISSIPPI

CITY           SKY/WX    TMP DP  RH WIND       PRES   REMARKS
LEAKESVILLE*     N/A     77  55  47 CALM      29.95F
AGRICOLA*      NOT AVBL

$$

MARINE OBSERVATIONS

STATION/POSITION TIME  TEMP    WIND        PRES    WAVE
                       AIR SEA DIR/SP/G            HT/PER
                 (UTC) (F)     (DEG/KT/KT) (MB)    (FT/S)
PASCAGOULA       1800   70     180/ 10/ 12 1014.1F
PETIT BOIS ISLND 1800   72     190/  8/  9 1014.9F
GRAND BAY        1700   70     170/  8     1016.0S
KATRINA CUT      1700   71     160/  5     1015.9F
CEDAR POINT      1700   70      90/  3     1015.2F
E DAUPHIN ISLAND 1700   70      CALM  /  4 1014.5F
MIDDLE BAY LIGHT 1700   72     270/  6     1013.9F
USCG MOBILE BAY  1800   76 69  110/  6/  8 1013.1S
STATE DOCKS      1800   81 65              1013.8S
MEAHER PARK      1700   75     230/  7     1013.9F
WEEKS BAY        1700   74                   N/A
FORT MORGAN      1800   72     230/  6/  7 1014.1F
12 S ORANGE BCH  1800   69 72  150/  4/  4 1014.7F   1
PENSACOLA BAY    1800   79 68  150/  6/  8 1014.3F
64 S DAUPHIN ISL 1703   68 71   10/  6/  6 1014.8F
67 S FORT MORGAN 1700   70                 1014.6F

$$

SELECTED LOCATIONS ACROSS THE REGION

CITY           SKY/WX    TMP DP  RH WIND       PRES   REMARKS
NEW ORLEANS    FAIR      81  62  52 N8        29.96F
GULFPORT       PTSUNNY   79  64  60 S9        29.95F
PASCAGOULA AP  PTSUNNY   79  66  64 S8        29.95F
PASCAGOULA*      N/A     73  68  83 S3        29.96F
HATTIESBURG    PTSUNNY   80  58  46 CALM      29.96F
LAUREL         PTSUNNY   79  54  41 NW5       29.98
MERIDIAN       FAIR      78  53  41 N6        29.97F
JACKSON        FAIR      77  49  37 NW8       29.98F
MONTGOMERY     MOSUNNY   78  56  46 CALM      29.95F
TROY           MOSUNNY   79  59  50 CALM      29.95F
KINSTON*       NOT AVBL
GENEVA*        NOT AVBL
ASHFORD*       NOT AVBL
DOTHAN         MOSUNNY   81  61  50 NW5       29.97F
PANAMA CITY    SUNNY     82  61  48 CALM      29.92F

$$




USA.gov is the U.S. government's official web portal to all federal, state and local government web resources and services.